Wind_Speed
47 44 43 43 44 42 41 40 38 38 38 37 36 36 36 36 37 38 37 36 36 36 35 34 34 33 32 31 31 31 28 26 25 25 24 23 23 23 22 20 16 15 15 15 16 16 16 17 18 17 16 15 14 12 10 12 12 12 12 11 10 10 10 10 8 7 9 10 9 8 7 6 4 3 6 8 7 6 5 3 1 3 4 5 5
40 41 42 41 43 42 41 41 40 39 39 39 38 37 37 36 37 38 38 38 38 38 37 36 36 35 34 33 32 30 28 27 26 26 25 24 23 24 24 21 17 16 15 16 16 17 17 17 18 17 16 15 14 13 12 13 14 13 12 11 11 10 9 8 7 8 9 10 10 9 7 5 4 5 8 7 7 7 6 4 1 2 3 6 7
37 42 44 43 43 43 42 43 42 41 40 40 39 38 37 37 37 37 37 38 38 38 39 37 36 34 34 33 32 30 29 27 26 26 26 25 23 23 24 22 19 18 18 18 18 18 18 18 17 16 16 15 15 14 14 15 14 13 12 11 11 10 9 10 8 8 10 11 10 9 8 6 7 9 9 6 6 7 7 5 1 1 3 5 6
40 44 46 45 45 44 44 44 44 43 42 42 41 40 39 39 38 38 37 38 38 38 40 38 36 34 34 33 32 30 29 27 27 27 27 26 24 23 24 23 21 21 21 20 19 18 19 18 17 16 16 15 15 16 16 15 14 13 12 12 12 10 10 11 9 8 9 10 10 9 8 8 9 10 10 7 6 7 7 5 2 1 1 4 4
46 46 47 47 47 47 47 46 46 46 46 44 43 42 42 41 40 39 37 37 37 38 39 39 37 36 35 35 34 32 31 30 30 31 30 29 26 24 24 23 22 22 22 21 19 19 19 19 19 18 17 17 17 17 16 15 14 13 13 13 12 11 11 12 11 10 9 9 10 10 8 9 10 10 10 8 8 9 8 6 4 2 1 2 2
50 50 50 50 49 49 49 48 48 48 48 47 45 44 43 43 42 40 39 38 37 37 38 38 38 38 38 39 38 37 35 34 34 34 32 30 28 25 24 23 22 22 23 22 20 20 19 19 20 20 19 18 18 17 16 15 14 14 14 14 13 12 13 13 13 11 11 10 11 11 9 9 11 11 10 8 9 11 10 8 6 4 3 2 1
47 49 51 52 51 51 51 51 51 51 50 48 47 46 45 45 44 43 41 40 39 37 37 37 38 39 40 41 40 39 38 36 35 34 32 29 28 26 25 24 23 23 23 23 21 20 19 18 19 20 20 19 19 18 16 15 15 14 15 15 14 14 15 15 14 13 13 13 13 13 12 11 11 12 12 10 11 13 12 10 9 7 5 4 3
47 47 50 52 52 53 53 53 53 51 50 50 49 48 47 47 46 45 43 42 41 40 38 38 39 40 40 41 41 40 39 36 34 33 31 29 28 27 26 25 25 25 24 24 22 21 19 19 19 20 20 20 19 18 16 15 15 15 16 16 15 17 16 15 15 14 14 14 14 13 13 12 12 11 13 13 11 12 13 13 12 10 8 7 6
49 50 51 53 54 54 54 54 54 53 52 52 51 49 48 48 47 47 46 44 43 42 41 40 40 40 40 40 41 41 40 37 35 34 32 31 29 28 28 27 26 26 26 26 24 22 21 20 19 20 20 20 19 18 16 16 16 16 16 16 16 18 17 16 16 15 14 14 14 14 14 14 14 12 13 15 13 11 13 15 14 12 11 10 9
50 51 53 55 56 55 55 54 55 55 55 54 52 51 50 50 49 49 48 47 45 45 44 43 42 41 41 41 41 41 41 40 38 36 35 33 31 30 29 28 27 27 27 26 24 22 21 20 20 21 21 19 18 18 17 17 16 16 15 15 15 16 16 16 16 16 15 14 14 14 14 14 14 14 14 16 16 13 13 14 15 14 13 11 11
50 51 52 54 55 56 56 56 56 56 56 55 54 54 53 52 52 51 50 49 48 47 46 45 44 43 44 43 42 41 41 41 40 39 37 36 34 31 29 28 27 26 26 26 25 23 22 21 21 21 21 20 19 18 18 17 16 15 14 14 13 13 14 14 15 16 16 15 16 14 13 13 13 14 14 15 16 15 13 13 13 14 14 13 12
50 50 51 52 53 53 54 55 56 56 55 55 54 54 54 54 53 53 52 51 49 48 47 47 46 46 46 45 43 42 40 41 41 39 38 37 35 32 31 29 27 26 26 26 25 24 23 23 22 22 22 21 20 19 18 17 15 14 14 14 13 13 13 14 15 17 17 17 16 15 13 13 12 12 13 14 15 14 13 11 11 12 13 13 13
49 50 51 51 52 53 54 55 56 56 56 56 55 55 55 55 55 55 54 53 51 50 49 48 48 48 48 47 45 43 42 41 40 39 38 36 35 33 32 30 28 27 27 28 26 25 25 24 23 23 23 22 20 19 18 17 15 15 15 14 13 13 13 13 15 17 18 18 16 15 15 15 14 13 13 13 14 12 11 11 11 11 11 11 13
49 50 51 51 53 55 56 57 58 58 58 58 57 56 56 56 56 56 56 55 53 52 51 50 50 49 49 48 47 45 44 43 41 39 37 36 35 34 33 31 29 28 28 28 26 25 25 25 24 24 23 22 21 19 19 17 16 16 15 13 13 12 11 12 14 16 18 18 16 16 16 16 16 15 14 14 14 12 11 11 12 11 10 10 12
49 50 51 53 55 57 57 58 59 60 60 60 59 58 57 57 57 57 57 56 55 54 53 52 51 50 49 49 48 46 45 44 43 41 38 36 35 35 34 32 30 29 28 27 26 25 25 25 24 23 23 23 21 20 19 18 17 16 15 13 13 12 11 12 14 15 17 18 17 17 16 16 17 17 16 16 15 13 11 11 12 12 12 12 12
47 49 52 54 56 57 57 58 59 60 60 60 60 60 59 59 58 58 57 56 56 56 55 54 52 51 50 49 48 46 45 45 44 43 40 37 36 35 34 32 30 29 28 27 26 25 25 25 24 23 23 23 22 21 21 20 18 16 15 14 14 13 12 13 14 15 16 17 18 19 18 17 17 18 18 17 15 14 12 13 13 13 12 13 13
48 51 54 55 55 56 57 58 59 59 59 60 61 61 61 60 58 58 57 57 57 57 56 55 53 52 51 49 48 46 45 45 44 43 43 40 37 36 35 33 31 30 29 28 26 25 26 25 24 23 23 24 23 22 22 21 18 16 15 15 14 13 14 14 15 16 16 17 19 21 21 19 19 19 19 17 16 15 14 15 14 13 12 13 13
50 52 53 54 55 56 57 58 59 60 60 61 62 62 61 60 59 58 57 57 57 57 56 55 54 53 52 50 48 46 45 44 43 42 42 42 40 38 36 35 33 32 30 28 26 26 27 26 24 23 23 24 24 23 22 22 19 17 17 16 14 15 16 16 16 17 16 17 19 21 22 21 21 20 19 18 18 16 16 16 15 15 14 14 15
47 49 50 52 55 57 58 59 59 59 60 61 61 60 60 59 59 58 57 56 56 55 55 55 55 54 53 51 48 46 45 44 43 42 42 43 43 41 38 37 35 33 32 30 27 27 28 28 26 24 24 25 25 24 23 22 21 18 18 18 17 17 19 18 17 18 17 17 19 21 21 22 22 22 21 19 19 18 17 17 17 18 17 17 17
46 48 50 53 56 58 59 60 60 60 60 60 59 58 58 59 59 58 57 56 55 55 55 55 54 54 53 51 48 46 44 43 43 42 42 42 42 41 41 39 36 35 33 31 29 28 28 28 27 26 25 26 26 25 24 23 22 21 20 19 19 20 21 20 19 18 18 19 21 22 22 22 22 22 22 21 20 20 20 19 19 19 18 19 18
48 49 51 54 56 58 59 59 60 60 59 58 56 56 58 58 58 58 58 57 56 56 56 55 54 53 52 51 49 46 44 44 43 42 42 42 41 41 41 40 38 37 35 33 31 29 29 28 27 27 27 27 27 26 25 24 24 23 22 21 21 22 22 22 21 20 19 20 22 23 22 22 22 23 22 22 22 22 22 21 20 19 18 19 19
48 51 53 55 57 58 58 58 58 57 56 55 55 56 57 57 57 58 57 57 57 56 56 56 54 53 52 50 48 46 44 44 44 42 41 41 42 41 40 40 40 39 37 35 33 31 30 29 28 28 29 29 28 27 26 26 26 25 24 22 22 23 24 24 24 23 22 22 23 23 22 22 22 23 24 24 23 22 22 21 21 20 20 20 20
49 51 53 55 56 58 57 56 56 55 55 55 55 55 56 57 57 57 57 58 57 56 56 55 54 53 51 49 47 46 44 44 44 42 41 41 42 41 40 39 39 39 39 37 35 32 31 30 29 29 30 30 30 29 28 27 27 26 25 24 24 24 25 25 25 25 24 23 24 23 22 22 22 23 24 25 24 23 22 22 21 20 20 20 20
47 48 52 53 53 53 53 53 54 55 56 55 55 56 56 56 56 57 58 58 57 56 56 55 54 53 51 49 47 46 45 45 44 42 40 41 41 41 40 39 38 38 39 39 37 35 33 32 31 30 31 32 32 31 29 29 29 28 26 25 24 25 25 26 26 25 25 25 25 24 22 22 22 23 24 25 25 24 22 22 21 19 18 19 19
43 45 48 50 49 48 49 51 53 55 55 55 55 56 56 56 57 58 58 58 57 56 56 55 55 53 52 50 48 47 46 45 44 42 40 40 41 41 40 39 38 38 39 39 39 37 35 34 33 33 32 33 34 33 32 31 30 29 27 26 26 26 26 26 26 25 25 25 25 24 23 22 23 23 24 25 25 24 22 21 20 18 17 17 18
43 45 48 49 48 48 49 51 53 54 55 55 55 55 56 57 57 58 58 57 57 56 56 55 55 54 53 51 49 48 47 45 44 42 40 40 41 42 40 38 38 38 38 40 40 39 37 36 35 35 34 34 35 35 35 33 32 30 29 28 28 27 26 26 26 25 25 25 25 24 23 23 23 24 24 25 25 24 22 20 20 19 18 18 18
44 46 48 47 46 47 48 50 53 54 55 56 55 55 56 56 57 57 57 56 56 56 56 55 55 54 54 52 50 48 47 45 44 42 40 40 41 41 41 39 38 37 38 39 40 40 39 37 37 37 37 37 36 37 37 35 34 32 31 30 29 28 27 27 26 26 25 25 25 25 24 24 23 24 25 25 25 24 22 21 20 20 20 20 20
41 42 44 44 45 47 48 50 52 53 54 55 55 55 56 56 56 56 56 56 56 56 56 55 55 55 55 53 51 49 47 46 44 42 41 41 41 41 40 40 39 38 38 38 39 39 39 39 39 39 39 39 38 38 38 38 36 35 33 32 30 29 28 27 27 26 26 26 26 26 25 24 23 24 24 24 24 23 21 21 21 21 21 22 22
39 41 43 45 47 48 49 50 52 52 53 54 54 54 54 54 55 55 55 56 56 55 55 55 55 55 55 54 51 49 48 47 45 44 42 42 41 41 40 40 40 39 39 38 38 39 40 40 40 40 40 40 40 40 40 39 38 36 34 33 32 30 28 28 27 26 25 25 26 28 27 25 24 24 24 24 23 22 21 22 22 21 20 22 23
40 42 44 47 48 48 49 51 51 51 53 54 54 54 55 55 55 55 55 55 55 54 55 55 55 55 54 53 52 50 49 48 48 46 44 43 43 42 41 40 41 41 40 39 38 40 41 42 41 41 42 42 42 41 41 40 40 38 35 34 33 31 29 29 27 26 26 26 26 28 29 28 26 25 24 24 23 22 22 23 22 20 20 20 22
39 41 43 46 48 48 48 48 50 52 53 55 55 56 56 55 55 55 55 55 54 54 54 55 54 54 53 53 52 51 50 49 49 48 46 45 44 43 42 41 41 41 41 40 40 40 41 42 42 43 43 43 44 43 42 42 41 40 38 36 34 31 30 31 30 30 29 27 24 26 29 30 28 27 25 24 24 23 23 23 21 20 19 19 21
36 38 42 45 47 48 48 49 51 52 53 55 56 55 55 55 55 56 55 54 53 53 54 54 54 53 53 52 51 51 50 50 49 48 48 47 46 45 44 44 43 42 41 41 42 41 41 41 42 44 44 44 44 44 43 43 42 41 40 38 36 33 31 31 33 33 32 27 22 23 27 29 29 28 25 25 24 23 22 21 20 19 19 19 20
34 36 39 44 46 49 51 52 53 54 54 55 56 55 55 55 56 56 54 52 52 53 54 54 53 52 52 52 51 50 50 50 49 49 48 47 47 46 46 46 46 44 42 42 42 42 41 41 42 43 44 44 44 44 44 43 43 43 42 41 39 34 31 32 34 34 33 28 22 22 25 27 28 27 27 25 24 22 21 21 20 18 18 18 20
31 34 37 42 46 48 50 52 53 54 55 55 55 55 56 55 55 54 52 52 52 52 53 53 52 52 52 51 51 50 49 49 49 49 48 48 48 48 48 47 47 46 45 43 43 43 42 42 42 42 43 44 44 44 44 43 43 43 42 45 43 35 32 35 36 34 33 29 23 22 24 26 26 26 27 25 22 20 21 21 19 18 18 19 21
25 29 33 38 42 44 47 49 51 52 52 52 52 53 53 53 52 51 51 52 52 52 53 53 52 52 51 51 50 50 49 49 49 49 49 49 49 49 49 49 49 48 47 44 43 43 43 42 42 41 42 43 43 43 43 42 42 43 42 44 43 36 33 36 35 33 33 31 27 25 24 25 26 25 25 23 21 20 20 19 17 17 19 20 22
19 24 27 32 36 38 40 44 47 49 50 50 50 51 52 52 51 50 51 52 52 53 53 52 52 52 51 51 50 50 49 49 49 50 50 50 50 50 50 50 50 50 48 45 44 44 43 42 41 41 42 42 41 41 42 41 41 42 42 42 42 37 34 36 35 30 28 28 28 29 26 24 25 25 23 21 21 20 19 18 17 18 20 21 21
15 19 22 25 28 31 33 38 43 45 47 47 47 48 50 50 50 50 51 51 52 53 53 53 53 52 51 51 51 50 50 50 50 51 51 51 51 51 51 51 51 51 49 47 46 46 44 42 40 41 41 40 40 40 40 39 40 42 41 41 40 37 35 38 36 29 26 25 27 30 28 25 26 26 22 19 19 20 20 19 19 19 20 19 19
6 12 17 20 23 25 28 32 37 41 43 43 43 45 47 48 49 50 51 51 52 53 53 53 53 52 51 51 51 51 50 50 51 52 52 52 51 51 51 51 52 51 49 48 47 46 44 42 41 41 39 37 38 37 36 36 38 41 42 40 37 35 35 38 35 29 28 28 28 29 28 26 26 24 19 17 19 20 20 19 18 19 19 18 18
3 2 8 14 19 22 24 27 31 35 38 39 40 42 44 47 49 49 50 51 52 53 53 52 51 50 50 51 52 52 51 51 51 52 52 52 51 51 51 51 51 51 49 48 48 46 44 43 41 40 37 36 37 36 34 34 36 39 41 40 36 32 30 33 34 31 29 29 28 28 28 26 22 20 17 17 19 19 19 18 18 18 19 18 18
8 6 3 5 11 18 23 26 28 31 34 37 39 40 43 45 46 48 49 50 50 50 49 48 48 48 50 51 52 52 52 51 51 52 52 52 52 51 51 51 50 49 48 48 47 46 44 43 42 39 37 37 37 35 33 33 34 37 39 39 36 30 25 25 29 30 28 27 26 26 25 23 20 19 17 18 18 18 19 18 17 18 19 18 18
10 10 9 7 4 8 15 21 24 26 30 35 38 40 43 44 45 47 49 48 47 46 44 45 46 48 50 51 52 52 53 52 52 52 52 52 52 52 52 51 49 48 48 48 47 45 44 43 41 39 38 38 37 34 32 31 32 33 36 36 31 24 20 21 25 26 25 25 24 23 23 21 21 19 18 18 17 17 17 17 17 17 18 18 18
9 9 9 9 8 6 6 11 17 22 27 32 34 36 39 42 44 47 48 47 45 44 44 44 47 49 50 51 52 52 53 52 52 53 53 53 53 52 52 50 48 47 47 47 46 44 43 42 40 39 39 37 37 34 31 30 31 31 31 29 22 17 17 20 23 23 23 22 21 21 20 19 19 17 16 15 15 16 16 16 16 16 16 16 16
7 8 8 9 9 9 9 8 9 13 20 26 29 30 32 36 41 45 46 45 45 45 45 46 47 49 50 51 52 52 52 52 52 52 53 53 52 51 50 49 47 47 46 46 45 44 43 42 41 39 37 36 37 34 30 29 30 27 23 21 17 15 16 19 20 20 18 17 17 18 17 18 17 15 14 14 15 16 16 16 16 16 15 15 14
7 7 7 7 7 8 9 9 10 9 10 15 21 25 27 31 36 39 41 43 44 45 45 45 45 46 48 49 49 49 50 51 51 50 51 51 50 50 50 49 48 47 47 47 46 45 44 43 40 37 36 37 37 32 26 24 23 18 17 18 17 16 16 17 18 17 15 15 15 16 16 16 15 14 15 15 16 17 17 16 16 15 14 13 13
7 8 8 7 5 6 6 7 8 10 10 10 13 18 23 28 32 35 38 41 43 44 44 44 44 45 45 45 45 45 45 45 45 46 48 50 51 51 50 50 49 48 49 49 48 47 46 43 38 36 37 38 35 29 23 21 18 15 16 19 18 17 18 18 17 16 14 14 15 15 15 15 15 16 17 17 18 17 16 15 14 14 13 13 13
7 9 10 9 8 6 5 5 6 7 9 10 11 13 17 21 25 29 33 37 40 42 43 44 45 45 45 45 45 44 43 42 42 44 46 49 51 52 52 51 50 50 51 52 51 50 48 43 38 37 37 36 32 26 22 21 20 19 19 20 20 19 19 19 18 16 16 16 16 16 15 16 17 18 19 18 17 15 14 14 14 14 13 14 14
5 7 9 10 10 9 7 5 4 5 7 9 11 13 15 17 20 24 28 31 35 39 41 42 44 44 44 45 45 45 43 42 41 43 46 49 52 53 53 53 53 54 55 54 54 54 50 45 41 39 37 33 30 26 23 22 21 19 20 23 24 23 23 22 21 19 18 18 18 18 18 19 20 20 19 18 16 15 14 14 14 14 14 14 15
6 6 7 8 9 10 9 7 6 5 6 8 10 12 14 16 18 22 25 28 31 35 37 40 42 43 43 45 45 45 45 45 44 45 47 49 52 54 56 58 59 59 59 59 59 55 50 46 44 41 36 32 30 28 26 23 19 19 23 26 27 28 28 26 24 23 21 20 20 20 21 22 22 21 20 18 16 15 14 14 14 14 14 14 14
7 6 6 6 7 8 9 10 9 8 7 8 9 12 13 14 16 20 23 26 29 32 34 36 38 40 42 44 46 47 48 47 46 46 47 51 53 56 59 62 62 62 62 61 58 52 46 42 41 38 33 31 30 29 26 20 16 19 24 25 26 29 29 27 26 24 23 22 22 22 23 23 22 21 20 18 16 14 14 14 14 13 13 13 14
8 8 9 8 8 7 7 7 8 9 9 9 10 12 14 15 17 19 22 25 28 31 34 36 38 40 42 44 46 48 49 47 45 45 48 52 55 57 60 61 61 61 62 61 56 48 42 39 36 32 28 25 23 24 23 19 17 20 21 21 23 26 27 27 27 25 24 24 24 24 24 22 21 20 18 16 14 13 13 14 13 13 13 13 15
8 8 9 10 10 10 9 7 7 8 10 10 11 12 13 15 16 18 20 22 24 28 32 36 38 41 43 46 47 48 47 46 45 45 48 54 57 59 60 60 60 60 60 59 53 44 37 33 30 27 24 21 17 17 20 20 19 18 19 21 23 25 25 26 27 26 25 25 25 24 22 20 19 18 16 14 12 12 13 14 13 12 13 14 16
Wind_Direction
202 199 202 204 206 207 209 212 214 214 216 217 217 218 219 218 217 217 217 214 214 215 215 214 212 211 213 215 216 218 218 216 218 221 224 227 229 230 232 233 233 235 239 239 239 240 239 239 239 240 241 243 250 253 253 262 269 272 271 262 255 260 261 249 236 214 193 190 196 197 207 224 242 239 196 190 194 192 198 199 116 41 35 36 26
201 199 201 204 206 208 210 213 214 216 217 218 218 218 218 218 219 219 218 217 216 216 217 216 214 214 216 218 218 219 218 218 220 221 224 227 229 231 232 231 230 231 236 236 238 240 239 239 240 240 241 244 249 250 250 258 264 270 268 256 257 263 249 220 199 191 191 195 200 205 218 223 202 179 175 184 191 183 187 194 145 35 43 33 23
200 201 202 204 206 208 210 213 215 217 218 219 219 218 219 219 220 221 220 220 218 218 219 220 219 218 220 222 222 222 222 222 223 225 226 226 227 229 230 230 228 230 234 237 240 240 239 240 240 241 242 244 247 246 248 255 262 268 261 252 258 256 230 207 194 194 199 201 207 216 225 213 181 174 177 196 207 193 187 188 179 47 35 26 32
200 202 202 204 206 208 210 213 216 217 218 220 219 219 219 219 220 221 221 222 220 219 219 221 222 222 223 226 226 227 227 227 228 229 228 227 226 227 228 229 229 231 234 238 241 241 240 241 241 242 243 244 245 245 249 256 264 265 253 248 255 244 221 206 193 189 196 202 210 215 216 207 191 186 192 209 220 211 202 203 215 209 14 22 44
199 201 202 204 205 208 211 213 215 216 217 220 220 221 221 221 222 221 222 222 222 220 219 220 222 223 224 223 224 227 229 229 229 228 226 225 226 226 226 227 228 231 234 237 241 242 243 243 243 243 242 243 244 246 251 257 261 258 248 248 252 236 215 204 195 194 198 203 212 213 208 206 202 199 202 211 214 210 211 221 233 243 307 0 42
200 200 202 203 205 208 210 213 214 215 218 221 222 223 223 223 222 222 223 224 224 223 221 220 221 223 222 221 221 222 225 226 227 226 224 224 225 226 226 226 227 231 234 237 241 243 245 245 243 241 240 242 243 246 250 253 252 246 242 247 248 230 213 206 203 209 212 210 213 218 220 215 208 204 203 202 200 203 214 222 223 234 271 293 302
203 202 202 203 205 206 208 211 213 216 219 222 223 224 224 224 223 223 224 225 226 225 223 221 220 221 223 223 224 224 225 226 226 227 227 227 228 228 229 230 231 234 237 239 241 241 244 247 243 237 238 240 241 245 247 246 243 240 242 247 244 228 217 213 213 220 222 218 216 220 227 227 215 212 214 209 196 201 213 219 219 225 241 264 271
204 203 202 203 205 205 208 210 213 217 219 220 222 224 224 224 225 225 225 226 227 226 224 222 221 221 223 225 227 228 229 229 228 228 228 229 231 232 233 234 236 238 240 241 240 239 243 246 241 234 234 237 239 242 244 242 238 237 242 244 236 223 220 221 222 227 227 223 223 224 230 234 228 227 228 223 212 209 212 215 219 226 233 248 255
205 205 204 205 205 207 209 211 213 216 217 218 220 224 225 225 226 225 226 227 227 226 225 224 224 224 224 226 228 230 232 232 232 231 230 230 232 234 236 237 238 239 239 239 238 238 241 244 240 233 233 236 238 239 240 238 236 238 241 242 233 222 221 225 225 229 231 228 230 232 237 239 235 234 230 224 224 226 222 219 222 228 235 242 242
207 207 207 207 207 209 211 212 214 215 215 217 220 222 223 223 224 224 226 227 228 227 226 225 225 225 226 227 229 230 231 232 232 232 232 232 232 234 236 236 235 234 234 234 234 235 238 242 239 234 235 237 237 237 237 237 238 239 239 238 232 222 224 228 226 227 231 233 236 237 238 239 232 229 226 222 226 233 233 229 230 232 240 248 248
208 208 209 210 210 210 211 211 213 214 214 216 217 219 220 221 222 224 226 228 228 228 227 226 226 226 228 229 230 231 231 231 231 232 232 232 232 233 232 230 230 230 230 230 230 230 234 239 239 235 236 237 235 235 237 238 240 239 236 232 228 225 228 233 231 227 227 232 237 237 235 236 232 229 230 228 228 234 238 236 236 238 244 251 254
208 209 210 210 210 210 210 211 212 213 213 214 216 217 218 219 220 222 225 227 228 229 228 228 227 227 229 230 232 233 232 232 232 233 234 233 232 231 228 226 226 228 227 226 226 228 232 237 238 235 236 235 234 235 237 239 241 238 233 229 226 227 230 235 237 233 230 231 235 238 236 233 231 232 236 235 233 238 244 247 246 246 248 247 245
208 209 210 209 210 210 210 211 212 212 213 214 216 217 217 218 219 220 222 225 227 229 229 229 229 228 230 231 233 234 234 234 234 235 235 235 233 230 226 225 225 225 225 224 225 227 232 236 236 235 236 235 232 233 235 238 238 234 230 227 228 230 233 237 238 238 237 235 237 241 242 239 234 233 237 237 235 239 248 253 250 247 246 244 239
209 209 210 210 210 211 211 211 212 213 214 215 216 217 217 218 219 220 221 223 225 227 229 230 230 231 231 232 233 235 235 235 235 235 235 235 234 230 227 226 225 225 225 226 227 229 233 237 237 236 236 234 231 231 233 236 235 231 228 228 231 235 240 243 243 242 240 238 238 240 243 242 236 232 233 233 233 237 249 257 254 248 245 243 242
210 210 210 211 212 212 212 212 213 214 215 215 216 216 217 218 219 219 220 221 222 225 228 229 231 232 232 232 234 235 236 236 237 236 235 234 233 231 228 226 226 227 229 231 232 233 235 236 236 235 235 232 229 229 231 234 233 228 226 229 233 238 245 249 250 247 241 235 234 234 237 237 232 230 232 231 231 238 248 256 258 256 254 253 252
210 211 212 213 213 213 213 213 214 215 215 215 215 216 217 218 219 220 221 221 222 224 227 229 231 232 232 233 234 235 236 237 237 236 235 233 233 232 230 228 227 229 232 234 235 235 235 235 233 233 232 230 229 229 230 233 232 228 228 229 230 237 244 249 251 249 242 234 229 228 232 234 231 232 234 233 233 239 244 249 254 257 259 260 261
211 212 213 214 214 214 214 214 215 215 215 215 216 217 217 218 219 220 221 222 222 224 226 229 231 231 232 233 233 234 235 236 237 236 235 233 232 232 232 231 229 230 233 235 237 237 235 233 232 231 231 229 228 228 229 231 232 230 231 232 232 236 241 245 248 246 239 232 227 227 231 234 233 233 235 236 237 242 245 248 251 253 256 259 263
213 213 214 214 214 215 215 216 216 217 216 217 218 218 218 218 219 220 220 221 223 225 226 228 230 230 231 232 233 234 235 236 237 237 236 234 232 231 232 233 231 232 234 235 237 238 236 234 232 231 230 229 229 228 229 231 232 231 233 234 235 237 239 242 245 243 236 229 227 229 232 234 233 233 235 238 241 244 246 249 252 253 255 258 262
213 214 214 215 215 216 216 217 218 218 218 219 219 218 217 218 220 221 222 224 225 225 227 229 230 230 231 232 233 234 235 236 236 237 236 235 234 232 232 233 233 233 234 235 236 237 236 235 232 231 230 230 230 229 229 231 232 231 232 233 234 236 238 240 243 243 237 232 231 232 234 235 234 235 238 242 246 247 248 251 255 256 259 262 263
213 213 214 215 216 217 218 218 218 218 219 220 218 217 217 218 218 220 223 224 224 226 227 228 229 230 231 231 232 234 235 235 236 236 236 236 235 234 233 234 234 234 234 235 236 236 236 235 233 231 230 230 231 231 230 231 232 231 232 234 236 238 239 239 241 241 238 235 233 233 235 237 238 239 242 245 248 251 255 257 260 260 260 261 263
213 213 214 216 217 218 220 220 219 219 219 219 217 217 218 218 218 219 221 222 224 226 227 228 229 230 230 231 232 233 234 235 235 236 237 237 237 235 233 234 234 235 235 235 236 237 235 235 234 233 232 232 234 233 230 229 230 231 232 235 237 240 241 241 241 240 238 235 234 234 236 239 241 243 244 247 250 253 257 259 261 263 261 260 261
212 213 215 216 217 218 219 220 219 218 218 217 217 217 217 217 218 219 219 221 224 227 228 228 229 229 230 231 232 233 233 234 235 235 236 236 236 235 234 233 233 235 235 236 238 238 236 235 234 234 234 234 235 235 231 229 229 229 231 233 237 240 241 241 240 239 237 235 234 235 237 239 241 242 243 245 248 251 255 257 260 265 264 260 260
215 214 215 217 217 218 218 218 217 216 217 217 217 217 217 217 218 218 218 222 225 227 228 228 228 229 230 230 232 232 233 233 234 235 234 233 234 235 234 233 233 234 235 236 239 240 238 236 236 236 236 235 236 235 232 230 230 229 230 233 236 240 241 240 238 238 237 237 236 237 239 239 239 241 242 244 247 250 251 254 257 262 262 260 261
217 215 216 217 218 217 216 216 216 216 216 216 216 217 217 217 217 217 219 223 225 227 227 227 228 228 229 230 231 232 232 233 233 233 232 231 232 233 233 232 232 233 234 236 238 240 240 239 238 238 237 236 236 235 233 232 231 230 231 233 236 240 242 241 239 238 239 238 238 239 241 241 242 244 244 246 249 249 247 250 253 256 259 261 261
218 216 216 217 217 216 216 216 216 216 216 216 216 216 216 216 217 218 220 223 224 225 224 225 227 227 228 230 231 231 232 232 233 232 231 230 230 232 232 232 232 233 235 236 237 240 241 240 239 239 239 238 236 236 235 234 232 231 231 233 237 240 242 243 242 240 240 240 238 240 242 243 245 247 248 248 249 248 247 251 255 257 261 264 264
219 217 217 217 217 216 216 216 216 216 216 216 216 216 215 216 217 219 221 222 222 223 222 224 225 225 227 229 231 231 232 232 232 232 231 230 230 231 232 232 232 233 234 236 237 239 240 241 241 241 241 240 239 238 237 236 234 232 231 233 236 239 242 244 242 241 242 241 239 240 242 243 245 248 249 249 248 247 250 254 259 263 266 268 265
221 219 219 218 217 217 216 216 216 216 216 216 216 216 215 216 217 219 220 221 221 222 221 222 224 225 226 229 230 231 232 232 232 232 232 232 231 230 231 231 232 232 234 236 237 238 240 242 242 243 243 243 241 240 239 238 235 234 233 234 235 238 241 243 242 242 243 244 241 240 243 245 247 249 250 248 247 249 254 259 264 268 269 267 264
224 221 220 219 218 218 217 217 217 216 216 216 216 216 216 216 217 218 218 220 221 220 221 222 223 224 225 228 230 231 232 232 233 233 233 233 232 231 230 231 232 232 233 235 237 239 240 241 243 244 245 245 244 243 242 239 237 235 235 235 237 239 241 243 242 241 244 247 245 243 243 247 250 252 252 250 249 254 259 264 270 272 268 262 259
224 221 219 219 220 219 217 217 217 215 214 214 215 215 215 216 217 218 218 221 221 220 221 222 223 225 226 228 229 230 231 232 232 232 233 233 232 231 230 231 232 233 234 235 238 239 241 242 243 245 246 246 246 246 245 242 239 237 236 236 237 239 242 244 244 242 245 250 250 247 245 246 249 252 254 254 253 257 262 268 271 270 264 258 256
225 220 217 218 220 220 218 217 216 214 214 214 214 215 215 215 217 217 218 220 219 219 220 221 224 228 228 227 227 228 229 230 231 231 232 232 232 232 231 231 232 233 234 235 237 239 241 242 244 245 246 246 247 248 248 246 243 241 239 238 237 239 241 244 243 240 241 246 247 247 247 247 250 252 254 255 256 259 264 267 266 261 258 257 256
226 220 216 216 219 220 219 217 216 216 215 214 215 216 216 215 216 217 219 219 218 219 220 223 227 229 227 225 226 227 228 229 231 231 232 232 232 231 231 231 232 232 233 234 236 238 240 242 244 245 246 247 248 250 250 249 246 243 242 239 238 239 240 242 243 238 234 238 241 242 247 250 251 251 253 255 257 259 261 261 261 261 260 259 260
230 222 216 215 217 218 218 217 218 218 217 215 215 216 216 215 215 218 219 218 217 219 222 225 228 227 226 225 226 225 227 229 231 231 231 231 231 232 232 232 232 232 232 233 235 237 239 242 244 245 246 248 250 251 252 251 248 246 244 240 238 239 240 243 247 242 236 239 242 240 244 250 252 252 253 255 256 257 258 260 263 265 264 263 266
234 227 220 217 218 219 220 220 220 220 219 218 216 216 217 219 219 220 218 215 216 220 223 227 228 226 226 227 226 225 226 229 231 231 231 230 231 232 233 233 233 233 232 233 235 237 238 240 242 244 246 249 250 252 253 252 251 249 245 238 234 236 240 244 248 246 241 241 243 242 243 248 251 252 254 255 255 257 260 262 263 262 262 264 267
236 232 226 222 221 221 222 222 221 221 222 220 217 218 221 223 221 218 216 216 219 221 224 228 228 226 226 226 225 226 228 229 230 229 229 230 232 233 234 234 233 232 232 234 235 236 237 239 241 243 246 248 250 252 253 253 254 252 245 239 235 233 238 244 247 249 246 242 244 248 249 248 249 251 254 256 257 258 260 259 259 261 263 264 267
239 234 230 226 225 224 224 223 222 221 221 218 216 218 221 221 219 217 218 221 223 225 227 229 227 226 226 225 225 227 228 228 228 228 229 231 233 234 234 234 233 233 233 234 235 236 237 238 240 242 245 248 250 252 254 255 256 252 246 241 238 236 238 241 244 249 248 243 243 247 249 249 250 252 255 257 258 258 257 258 260 264 267 268 270
245 238 232 229 228 228 228 227 224 222 219 218 218 219 220 220 220 220 222 223 224 224 226 227 225 224 225 225 226 227 227 228 227 227 229 231 232 233 234 234 233 233 234 235 236 237 237 237 240 242 244 247 249 252 254 255 256 252 246 242 242 245 245 241 242 248 245 240 242 242 242 249 253 251 252 256 256 255 254 257 260 264 268 271 270
245 244 240 235 232 230 230 229 226 222 220 221 221 220 220 221 221 221 222 222 222 223 225 226 226 226 226 227 227 227 227 228 227 228 230 231 232 233 234 233 232 232 233 234 235 236 237 238 240 242 244 246 249 251 253 255 255 250 244 242 244 251 250 243 244 251 246 243 249 245 242 252 255 249 248 253 253 252 251 253 256 260 264 266 266
234 240 242 240 236 233 231 228 226 224 225 224 222 220 220 220 220 221 221 221 222 224 226 227 228 229 229 229 228 227 227 228 229 230 231 231 232 234 234 233 232 233 234 235 235 235 236 238 240 241 243 246 248 251 253 254 254 250 245 243 244 251 253 247 245 248 244 246 253 250 251 260 255 244 244 250 250 250 251 252 253 255 257 259 263
65 245 244 243 239 236 234 231 228 227 228 226 224 222 221 221 222 222 221 221 223 226 228 229 231 232 232 230 229 227 228 230 231 232 232 232 233 234 233 233 233 234 236 236 235 235 236 238 239 241 244 246 247 251 252 253 254 251 248 245 242 246 253 249 243 243 243 245 250 253 258 261 247 233 239 247 247 248 250 251 251 252 253 255 258
54 44 11 278 249 238 234 234 234 231 227 224 222 222 223 225 225 223 222 224 228 230 231 232 234 234 232 231 230 229 229 231 232 233 233 234 234 233 232 231 232 234 236 235 235 235 235 237 238 240 243 245 246 249 251 252 254 254 252 247 242 243 247 241 237 239 240 242 247 253 258 251 233 226 236 243 245 249 250 249 250 251 253 255 258
41 32 23 10 316 253 238 239 242 240 232 226 222 221 222 224 224 223 226 232 235 235 236 237 237 234 232 232 232 232 232 233 233 233 232 232 233 232 231 231 232 233 233 233 233 233 232 233 236 239 242 244 246 249 251 251 253 255 254 251 248 249 247 236 232 235 236 238 244 250 251 239 225 226 235 239 244 250 250 251 253 253 254 256 260
32 23 15 12 2 339 286 253 246 240 236 233 232 229 226 224 222 225 232 237 237 236 237 237 236 233 232 232 232 232 232 232 230 230 230 230 230 230 229 229 230 231 230 229 229 228 228 230 234 238 241 244 246 248 250 253 253 253 254 254 250 249 245 234 230 233 233 234 241 247 243 231 223 226 233 237 244 249 250 251 252 253 254 255 257
15 15 13 12 5 353 342 320 280 251 239 238 242 243 238 231 228 231 235 234 231 232 233 234 233 232 232 232 233 233 232 231 228 227 228 229 228 226 225 226 227 226 226 225 225 225 226 228 232 236 239 241 243 243 245 250 252 249 248 248 242 234 232 230 229 230 230 232 239 240 232 222 219 224 231 238 243 245 244 243 244 247 251 251 250
359 0 3 6 3 354 347 340 329 311 278 255 251 250 248 243 241 241 238 234 232 232 231 232 232 233 234 234 235 234 233 231 229 227 226 227 227 226 225 225 225 224 223 223 223 223 224 226 229 233 234 234 236 236 236 245 250 241 231 233 231 223 222 224 225 226 228 231 233 228 220 216 219 226 232 236 236 234 234 235 238 243 245 244 246
344 341 341 343 344 343 337 329 326 325 316 296 272 258 254 252 251 248 244 240 237 235 234 234 234 234 235 236 236 236 235 232 230 228 227 226 227 227 226 223 221 221 221 221 221 222 223 224 225 226 227 229 231 231 232 236 232 215 211 220 222 219 218 219 219 219 220 222 219 214 213 216 221 226 227 227 227 227 231 235 239 242 241 241 249
334 328 330 332 330 329 324 311 300 297 296 294 285 272 265 262 260 256 252 247 243 239 238 237 236 236 236 236 236 236 235 234 234 233 232 231 230 228 225 222 219 219 220 221 221 221 221 220 219 219 222 227 229 229 229 225 213 200 202 210 214 217 217 216 214 211 208 208 206 205 208 212 216 219 220 220 223 227 232 237 239 239 239 242 254
346 331 327 325 325 329 331 319 289 269 265 266 267 267 267 265 262 260 257 254 249 244 240 237 236 236 236 236 236 235 234 234 235 236 236 234 232 229 225 222 220 219 220 220 221 221 218 214 213 216 219 221 224 222 214 205 202 201 201 204 209 213 214 212 208 203 200 202 204 204 206 208 212 213 214 216 220 225 230 234 235 235 238 246 258
1 341 325 316 314 317 318 315 301 275 258 250 251 254 257 257 255 254 253 252 251 250 246 243 241 239 237 237 236 235 233 233 233 235 235 233 230 228 227 227 226 224 222 221 218 215 212 210 211 213 212 211 213 209 199 194 200 204 201 201 207 210 209 207 204 199 199 204 208 209 208 208 209 210 211 214 219 223 228 232 232 233 240 250 258
3 352 340 323 308 302 303 305 305 298 283 264 251 249 249 250 250 248 245 243 245 248 247 244 242 239 235 232 230 228 227 224 223 226 229 231 231 231 230 230 229 227 225 221 213 206 205 210 216 216 210 207 206 200 193 193 200 203 205 210 213 211 207 204 201 199 202 207 209 211 210 209 209 211 212 216 220 224 228 231 232 236 245 252 256
2 356 352 344 330 315 306 299 295 294 289 279 267 258 253 252 250 248 244 240 238 240 242 241 237 232 228 224 222 222 223 223 221 221 222 224 225 226 226 225 223 223 222 219 214 212 213 216 220 221 217 214 208 195 185 183 185 193 206 219 219 212 206 202 200 201 206 209 210 209 209 210 212 214 216 218 222 226 230 232 235 241 247 251 252
0 351 347 348 344 338 334 327 310 299 291 284 278 271 266 263 262 260 257 252 246 243 244 244 240 234 230 227 226 226 228 229 229 226 223 221 220 218 218 219 218 218 218 214 214 217 216 212 210 210 207 207 201 181 170 168 172 183 201 214 215 211 207 203 201 203 206 208 208 208 209 212 216 217 219 222 225 229 230 232 237 243 245 247 252
Height
1493 1498 1501 1503 1506 1509 1512 1515 1517 1520 1522 1524 1525 1527 1528 1530 1532 1533 1535 1538 1540 1541 1542 1543 1544 1546 1547 1547 1548 1550 1552 1553 1554 1556 1557 1558 1560 1561 1563 1564 1565 1566 1567 1567 1568 1568 1569 1569 1570 1570 1571 1571 1572 1572 1573 1573 1573 1573 1572 1572 1572 1572 1571 1571 1571 1571 1572 1573 1574 1575 1576 1576 1576 1576 1576 1577 1578 1578 1579 1579 1579 1580 1580 1579 1579
1495 1497 1499 1502 1505 1508 1510 1513 1515 1517 1518 1520 1522 1523 1526 1528 1529 1531 1533 1535 1537 1538 1540 1541 1542 1543 1544 1544 1546 1548 1550 1551 1552 1554 1556 1557 1559 1560 1561 1563 1564 1565 1566 1566 1567 1567 1567 1568 1569 1569 1570 1571 1571 1571 1572 1572 1572 1572 1572 1571 1571 1571 1571 1571 1571 1572 1572 1573 1574 1575 1576 1576 1576 1576 1577 1577 1577 1578 1578 1579 1579 1579 1580 1579 1579
1494 1494 1496 1499 1501 1504 1507 1509 1511 1513 1515 1517 1519 1522 1524 1525 1527 1529 1531 1532 1534 1536 1538 1538 1540 1542 1543 1544 1545 1547 1549 1550 1551 1553 1555 1556 1558 1559 1560 1562 1563 1564 1565 1565 1566 1566 1566 1567 1568 1569 1569 1570 1570 1571 1571 1571 1571 1571 1571 1571 1571 1571 1571 1571 1571 1572 1573 1574 1575 1575 1576 1576 1576 1576 1577 1577 1577 1578 1578 1578 1579 1579 1579 1579 1579
1489 1490 1493 1495 1498 1501 1503 1505 1507 1509 1512 1514 1517 1519 1521 1522 1524 1525 1527 1529 1531 1533 1535 1537 1539 1541 1543 1544 1545 1547 1548 1549 1551 1552 1554 1555 1556 1557 1558 1560 1561 1562 1563 1564 1564 1565 1566 1566 1567 1568 1568 1569 1569 1570 1570 1570 1570 1570 1570 1570 1570 1570 1571 1571 1572 1572 1573 1574 1574 1575 1576 1576 1576 1576 1576 1577 1577 1578 1578 1578 1579 1579 1579 1579 1579
1482 1485 1488 1491 1494 1496 1498 1500 1503 1506 1508 1509 1512 1514 1516 1517 1520 1522 1524 1526 1528 1530 1533 1535 1538 1539 1541 1543 1544 1545 1546 1547 1548 1549 1550 1552 1553 1555 1556 1558 1559 1561 1562 1562 1563 1564 1565 1566 1567 1567 1568 1568 1568 1569 1569 1569 1569 1569 1570 1570 1570 1570 1571 1571 1571 1572 1572 1573 1574 1574 1575 1575 1575 1576 1576 1576 1577 1577 1578 1578 1579 1579 1579 1580 1580
1476 1478 1481 1484 1487 1490 1493 1497 1500 1502 1503 1505 1507 1509 1511 1513 1516 1520 1522 1524 1526 1528 1530 1533 1534 1536 1537 1538 1539 1540 1542 1543 1543 1545 1547 1549 1551 1553 1555 1556 1558 1559 1560 1561 1562 1563 1564 1565 1566 1566 1567 1567 1567 1568 1568 1568 1568 1569 1569 1569 1569 1570 1570 1570 1571 1571 1572 1572 1573 1573 1573 1574 1574 1575 1576 1576 1576 1577 1578 1578 1579 1579 1579 1580 1580
1475 1475 1477 1479 1482 1485 1489 1492 1495 1497 1498 1500 1503 1506 1508 1511 1514 1516 1519 1521 1523 1525 1528 1530 1531 1532 1533 1534 1535 1537 1538 1539 1540 1543 1546 1547 1549 1551 1553 1554 1556 1557 1558 1559 1561 1562 1563 1564 1564 1565 1565 1566 1566 1567 1567 1567 1568 1568 1569 1569 1569 1569 1570 1570 1570 1571 1571 1571 1572 1572 1572 1573 1574 1574 1575 1575 1575 1576 1577 1578 1578 1579 1579 1579 1579
1472 1473 1475 1477 1479 1481 1483 1486 1488 1490 1493 1497 1500 1503 1505 1508 1510 1513 1516 1518 1520 1522 1524 1526 1528 1529 1530 1532 1533 1534 1535 1537 1540 1542 1544 1547 1548 1549 1551 1552 1554 1555 1556 1558 1559 1560 1561 1562 1563 1563 1564 1565 1565 1565 1566 1567 1567 1568 1568 1568 1568 1569 1569 1569 1570 1570 1571 1571 1571 1572 1572 1572 1573 1574 1574 1574 1574 1575 1576 1576 1577 1578 1578 1579 1579
1467 1469 1470 1472 1474 1477 1478 1480 1482 1485 1488 1492 1495 1498 1501 1504 1507 1509 1512 1514 1516 1519 1521 1523 1524 1526 1528 1530 1531 1532 1534 1537 1539 1541 1543 1545 1546 1547 1549 1550 1551 1553 1554 1555 1557 1558 1560 1561 1561 1562 1562 1563 1564 1564 1565 1566 1566 1567 1567 1567 1568 1568 1569 1569 1570 1570 1571 1571 1572 1572 1572 1572 1573 1573 1574 1574 1574 1575 1575 1575 1576 1576 1577 1577 1578
1464 1465 1466 1467 1469 1471 1473 1476 1479 1482 1485 1488 1491 1494 1497 1500 1503 1505 1508 1510 1513 1515 1518 1519 1521 1523 1525 1526 1527 1529 1532 1535 1537 1539 1541 1543 1544 1546 1547 1548 1549 1551 1552 1553 1555 1556 1558 1559 1560 1560 1561 1562 1563 1563 1564 1565 1566 1566 1567 1567 1567 1567 1568 1569 1569 1570 1570 1571 1571 1572 1572 1572 1572 1573 1573 1573 1574 1574 1574 1575 1575 1575 1576 1576 1577
1459 1462 1464 1465 1466 1467 1470 1473 1476 1480 1483 1486 1489 1491 1494 1496 1499 1502 1504 1507 1509 1511 1514 1516 1518 1520 1521 1523 1524 1527 1530 1533 1535 1537 1539 1540 1542 1543 1545 1546 1547 1548 1550 1551 1553 1554 1556 1557 1558 1559 1560 1561 1561 1562 1563 1564 1565 1566 1566 1566 1566 1567 1568 1568 1569 1569 1570 1571 1571 1571 1571 1571 1572 1572 1573 1573 1573 1573 1574 1574 1575 1575 1575 1576 1576
1455 1458 1461 1463 1466 1468 1471 1472 1474 1478 1481 1483 1486 1488 1491 1493 1496 1498 1500 1503 1505 1507 1510 1512 1514 1516 1518 1520 1522 1524 1527 1530 1532 1534 1536 1538 1539 1541 1543 1544 1545 1546 1548 1549 1551 1552 1553 1555 1556 1557 1558 1559 1560 1561 1562 1563 1564 1565 1565 1565 1565 1566 1567 1568 1568 1569 1570 1570 1571 1571 1571 1571 1572 1572 1573 1573 1573 1574 1574 1574 1574 1574 1575 1575 1576
1451 1454 1456 1460 1462 1464 1467 1469 1471 1475 1477 1479 1482 1485 1487 1490 1492 1494 1496 1498 1501 1503 1506 1508 1510 1512 1514 1517 1519 1522 1525 1526 1528 1531 1533 1536 1538 1539 1541 1542 1543 1544 1545 1546 1548 1550 1551 1553 1554 1555 1557 1558 1559 1561 1561 1562 1563 1564 1564 1564 1565 1566 1567 1568 1568 1569 1570 1570 1571 1571 1571 1571 1571 1572 1572 1573 1573 1573 1573 1574 1574 1574 1574 1574 1575
1447 1449 1452 1455 1456 1459 1461 1463 1466 1468 1471 1474 1477 1480 1483 1485 1488 1490 1492 1495 1497 1499 1502 1504 1506 1508 1511 1514 1516 1519 1522 1523 1526 1528 1531 1533 1535 1537 1538 1540 1541 1541 1543 1544 1546 1548 1549 1551 1553 1554 1556 1557 1559 1560 1561 1562 1562 1563 1563 1564 1565 1566 1567 1567 1568 1568 1569 1570 1570 1571 1571 1571 1571 1571 1572 1572 1573 1573 1573 1573 1573 1573 1574 1574 1574
1442 1445 1447 1449 1451 1453 1456 1458 1461 1463 1466 1469 1472 1475 1478 1480 1482 1485 1488 1491 1493 1496 1498 1499 1501 1504 1507 1510 1513 1516 1518 1521 1523 1525 1528 1531 1533 1535 1537 1538 1539 1540 1541 1543 1545 1546 1548 1550 1551 1553 1555 1556 1558 1559 1560 1560 1561 1562 1563 1564 1565 1566 1566 1567 1567 1567 1568 1569 1569 1570 1570 1570 1570 1570 1571 1572 1572 1572 1572 1572 1573 1573 1573 1573 1573
1438 1440 1442 1444 1446 1449 1451 1454 1456 1459 1462 1465 1468 1470 1472 1475 1478 1481 1484 1487 1490 1492 1494 1495 1498 1501 1504 1507 1510 1513 1515 1517 1520 1522 1525 1528 1530 1533 1534 1536 1537 1539 1540 1542 1543 1545 1546 1548 1550 1552 1554 1555 1556 1557 1558 1559 1561 1561 1562 1563 1564 1565 1565 1565 1566 1566 1566 1567 1568 1569 1569 1569 1569 1570 1570 1571 1571 1572 1572 1572 1572 1572 1572 1572 1572
1432 1434 1435 1438 1442 1445 1447 1450 1452 1455 1458 1460 1463 1465 1467 1470 1474 1477 1481 1484 1486 1488 1490 1492 1495 1497 1500 1503 1506 1509 1512 1514 1516 1518 1521 1524 1527 1530 1532 1534 1535 1537 1539 1540 1542 1543 1545 1547 1549 1551 1552 1554 1555 1556 1557 1558 1560 1560 1561 1562 1563 1563 1564 1564 1565 1565 1565 1566 1567 1567 1567 1568 1568 1569 1569 1570 1570 1571 1571 1571 1571 1571 1572 1572 1571
1426 1428 1431 1435 1438 1441 1443 1446 1448 1450 1453 1455 1457 1460 1464 1467 1470 1473 1476 1479 1481 1484 1486 1489 1491 1494 1496 1499 1503 1505 1508 1510 1513 1516 1519 1521 1524 1527 1529 1531 1533 1535 1537 1539 1540 1541 1543 1545 1547 1549 1550 1552 1553 1554 1556 1557 1558 1559 1559 1560 1561 1562 1562 1563 1563 1564 1564 1565 1565 1566 1566 1566 1567 1567 1568 1568 1569 1569 1570 1570 1570 1570 1571 1571 1571
1423 1425 1429 1432 1434 1436 1438 1441 1443 1446 1449 1451 1454 1458 1461 1464 1467 1470 1472 1474 1477 1480 1483 1485 1487 1490 1493 1496 1499 1502 1505 1508 1510 1513 1515 1517 1520 1523 1526 1528 1531 1533 1535 1537 1538 1540 1541 1543 1545 1547 1549 1550 1551 1553 1554 1555 1556 1556 1557 1558 1559 1559 1560 1561 1562 1562 1563 1563 1564 1564 1565 1565 1566 1566 1566 1567 1567 1568 1568 1569 1569 1569 1569 1570 1570
1418 1420 1423 1425 1428 1430 1432 1435 1438 1442 1445 1447 1452 1456 1458 1461 1464 1467 1470 1473 1476 1478 1479 1481 1483 1486 1489 1493 1496 1499 1502 1504 1507 1509 1512 1513 1516 1520 1523 1525 1528 1531 1533 1535 1536 1538 1540 1541 1543 1545 1546 1548 1549 1550 1552 1553 1553 1554 1554 1555 1556 1557 1558 1559 1560 1561 1561 1562 1562 1563 1563 1564 1564 1564 1565 1565 1565 1566 1567 1567 1568 1568 1568 1568 1568
1411 1414 1417 1420 1422 1425 1427 1430 1433 1437 1441 1445 1449 1452 1454 1458 1460 1463 1466 1469 1472 1474 1475 1477 1480 1483 1486 1489 1492 1495 1498 1501 1504 1506 1508 1510 1513 1516 1519 1523 1525 1528 1530 1532 1534 1536 1538 1539 1541 1542 1544 1545 1547 1548 1549 1550 1550 1551 1552 1553 1554 1555 1556 1557 1559 1559 1559 1560 1560 1560 1561 1562 1563 1563 1564 1564 1564 1565 1565 1566 1567 1567 1567 1567 1567
1405 1408 1411 1414 1417 1419 1422 1426 1430 1434 1438 1442 1445 1447 1450 1454 1456 1459 1463 1465 1467 1469 1471 1473 1477 1480 1483 1486 1489 1492 1495 1498 1500 1502 1504 1506 1509 1512 1516 1519 1522 1525 1528 1530 1532 1533 1535 1537 1538 1540 1541 1543 1544 1545 1546 1547 1547 1548 1549 1550 1551 1552 1554 1555 1556 1557 1557 1557 1558 1558 1559 1560 1561 1562 1562 1563 1563 1563 1564 1565 1565 1566 1566 1566 1566
1400 1403 1406 1409 1411 1414 1418 1422 1426 1430 1433 1437 1440 1443 1446 1448 1451 1455 1458 1460 1462 1464 1467 1470 1473 1476 1479 1483 1486 1489 1492 1494 1496 1498 1500 1502 1505 1509 1513 1516 1519 1522 1525 1527 1529 1531 1532 1534 1536 1537 1538 1540 1541 1542 1543 1543 1544 1545 1546 1547 1548 1550 1551 1552 1553 1554 1555 1556 1556 1557 1557 1558 1559 1560 1560 1561 1561 1562 1562 1563 1564 1565 1565 1566 1566
1397 1399 1402 1405 1408 1412 1415 1419 1422 1425 1428 1432 1435 1438 1441 1444 1448 1451 1452 1454 1457 1461 1464 1467 1470 1473 1477 1480 1483 1485 1488 1490 1491 1494 1496 1499 1502 1505 1509 1512 1516 1519 1521 1524 1526 1528 1529 1531 1533 1534 1535 1536 1537 1538 1539 1540 1541 1542 1543 1545 1546 1548 1549 1550 1551 1552 1554 1555 1555 1556 1556 1557 1557 1557 1558 1558 1559 1560 1560 1561 1562 1563 1564 1565 1566
1396 1397 1399 1402 1405 1409 1412 1414 1417 1420 1423 1426 1429 1433 1436 1440 1443 1445 1447 1451 1454 1458 1460 1463 1466 1470 1473 1476 1479 1482 1484 1485 1487 1490 1493 1495 1498 1501 1505 1509 1512 1515 1517 1520 1522 1524 1526 1527 1529 1530 1531 1532 1533 1534 1535 1536 1537 1539 1541 1543 1544 1545 1546 1548 1549 1551 1552 1553 1554 1554 1555 1555 1555 1555 1556 1556 1557 1558 1559 1560 1561 1562 1563 1564 1565
1392 1394 1395 1397 1400 1403 1406 1409 1412 1415 1419 1422 1425 1428 1431 1434 1437 1440 1443 1447 1450 1454 1456 1459 1463 1466 1469 1472 1475 1477 1479 1481 1484 1487 1490 1493 1495 1498 1501 1505 1508 1511 1514 1516 1518 1520 1522 1523 1524 1526 1527 1528 1530 1531 1531 1533 1535 1537 1539 1540 1541 1543 1545 1546 1548 1549 1551 1551 1552 1553 1553 1554 1554 1553 1554 1554 1556 1557 1558 1559 1560 1561 1562 1563 1563
1387 1389 1392 1394 1396 1399 1401 1404 1407 1410 1414 1417 1420 1424 1427 1430 1433 1436 1439 1443 1446 1449 1452 1455 1458 1461 1464 1467 1470 1472 1475 1478 1481 1484 1488 1490 1492 1495 1497 1501 1504 1507 1510 1512 1514 1516 1517 1519 1520 1522 1523 1525 1526 1527 1528 1530 1532 1534 1536 1537 1538 1541 1542 1544 1546 1548 1549 1550 1551 1551 1552 1552 1552 1551 1552 1553 1554 1556 1557 1558 1558 1559 1560 1561 1561
1383 1386 1389 1391 1393 1394 1396 1400 1403 1406 1410 1413 1416 1420 1423 1426 1429 1432 1436 1439 1442 1444 1447 1450 1453 1455 1458 1461 1465 1469 1472 1475 1479 1482 1486 1488 1490 1492 1494 1497 1500 1502 1505 1507 1509 1511 1513 1515 1516 1518 1519 1521 1522 1524 1525 1526 1528 1530 1532 1534 1536 1538 1540 1542 1544 1546 1548 1550 1550 1550 1550 1550 1550 1550 1550 1551 1553 1554 1555 1555 1556 1557 1557 1558 1559
1378 1380 1384 1387 1388 1389 1391 1394 1397 1401 1406 1409 1412 1416 1419 1423 1426 1429 1432 1434 1436 1439 1442 1446 1448 1450 1452 1455 1460 1465 1468 1472 1476 1479 1482 1484 1486 1489 1491 1493 1496 1498 1500 1502 1505 1507 1508 1510 1512 1514 1516 1517 1518 1519 1520 1522 1524 1526 1529 1531 1533 1536 1538 1540 1543 1545 1548 1549 1549 1548 1547 1547 1548 1548 1549 1550 1550 1552 1552 1553 1553 1554 1554 1555 1556
1372 1374 1377 1381 1383 1385 1387 1390 1393 1397 1401 1404 1407 1411 1414 1417 1421 1424 1427 1429 1433 1436 1438 1441 1443 1444 1447 1452 1457 1461 1464 1468 1471 1474 1478 1480 1483 1485 1488 1489 1491 1493 1495 1497 1500 1502 1503 1505 1507 1509 1511 1513 1514 1515 1516 1518 1520 1523 1526 1528 1531 1534 1536 1538 1540 1542 1542 1542 1543 1544 1545 1546 1546 1546 1547 1547 1548 1549 1549 1550 1551 1551 1551 1552 1554
1367 1370 1373 1375 1378 1382 1385 1387 1390 1393 1396 1399 1402 1405 1408 1412 1416 1419 1422 1425 1429 1432 1434 1436 1437 1439 1444 1448 1452 1456 1460 1463 1466 1470 1474 1477 1480 1482 1484 1485 1486 1488 1490 1492 1495 1496 1498 1501 1503 1504 1507 1508 1509 1511 1512 1514 1516 1519 1522 1525 1529 1532 1534 1535 1536 1535 1535 1536 1538 1540 1542 1544 1544 1544 1545 1545 1545 1546 1547 1547 1548 1548 1549 1550 1551
1364 1366 1369 1371 1374 1377 1380 1383 1386 1388 1392 1394 1398 1401 1405 1408 1412 1414 1417 1421 1425 1427 1430 1431 1433 1437 1441 1444 1448 1452 1456 1459 1462 1465 1469 1472 1476 1478 1479 1480 1481 1483 1485 1487 1489 1491 1493 1496 1498 1500 1502 1503 1505 1506 1508 1510 1512 1514 1517 1522 1526 1529 1530 1531 1531 1531 1533 1534 1536 1537 1539 1541 1542 1542 1542 1543 1543 1544 1544 1545 1545 1546 1547 1548 1549
1362 1363 1365 1367 1369 1372 1374 1377 1380 1383 1386 1389 1393 1397 1400 1403 1406 1409 1414 1418 1421 1423 1426 1428 1430 1435 1438 1440 1444 1448 1452 1455 1458 1461 1465 1468 1471 1473 1473 1474 1476 1478 1480 1482 1483 1485 1488 1490 1492 1494 1496 1498 1500 1502 1504 1506 1507 1510 1514 1518 1522 1526 1528 1529 1529 1530 1531 1533 1533 1534 1535 1537 1538 1539 1539 1540 1541 1541 1542 1542 1543 1543 1544 1545 1546
1362 1363 1363 1364 1366 1368 1370 1372 1375 1378 1381 1385 1390 1393 1396 1399 1403 1407 1411 1415 1417 1420 1422 1424 1427 1431 1433 1436 1440 1443 1447 1450 1454 1457 1460 1463 1464 1466 1467 1469 1471 1474 1475 1476 1477 1480 1482 1484 1487 1489 1491 1493 1495 1497 1499 1501 1503 1506 1511 1512 1515 1522 1526 1526 1526 1527 1528 1530 1531 1531 1532 1533 1534 1535 1536 1537 1538 1539 1539 1539 1540 1541 1541 1542 1543
1362 1362 1363 1364 1365 1366 1368 1370 1373 1375 1379 1383 1387 1391 1395 1398 1402 1405 1408 1411 1413 1415 1417 1419 1422 1426 1429 1432 1436 1439 1443 1446 1449 1453 1455 1456 1458 1460 1462 1464 1466 1468 1470 1471 1472 1474 1476 1479 1481 1484 1486 1488 1490 1492 1494 1497 1500 1503 1507 1508 1511 1519 1523 1521 1521 1523 1524 1526 1528 1528 1528 1529 1530 1532 1533 1534 1536 1536 1536 1537 1537 1538 1538 1539 1540
1361 1361 1362 1363 1364 1365 1366 1367 1370 1373 1376 1380 1383 1388 1392 1395 1399 1402 1404 1406 1409 1411 1413 1415 1418 1421 1425 1428 1430 1434 1438 1441 1445 1447 1449 1450 1452 1454 1456 1459 1461 1463 1466 1467 1468 1468 1470 1473 1476 1479 1481 1483 1485 1487 1489 1493 1496 1499 1503 1505 1507 1513 1515 1514 1516 1519 1520 1522 1523 1523 1525 1526 1527 1528 1530 1531 1533 1533 1533 1533 1534 1534 1535 1536 1537
1361 1362 1362 1363 1364 1365 1367 1368 1370 1372 1374 1376 1381 1385 1389 1392 1396 1398 1401 1403 1406 1407 1409 1412 1414 1417 1420 1423 1426 1429 1433 1436 1439 1441 1442 1445 1447 1449 1451 1454 1456 1458 1460 1462 1463 1463 1466 1469 1472 1474 1476 1478 1481 1483 1485 1489 1492 1494 1498 1501 1503 1506 1508 1510 1513 1515 1516 1516 1517 1518 1520 1522 1523 1525 1527 1528 1529 1530 1530 1530 1531 1531 1532 1533 1534
1360 1361 1361 1362 1363 1365 1367 1369 1371 1372 1373 1375 1378 1383 1386 1390 1392 1394 1397 1400 1401 1403 1405 1407 1410 1412 1415 1418 1420 1424 1427 1431 1433 1434 1436 1439 1442 1444 1447 1449 1451 1453 1455 1457 1458 1460 1462 1465 1467 1469 1472 1474 1476 1478 1481 1485 1488 1489 1491 1495 1500 1502 1504 1506 1510 1512 1511 1511 1512 1514 1516 1518 1519 1521 1523 1525 1526 1526 1527 1527 1528 1529 1529 1530 1532
1360 1360 1361 1361 1363 1364 1366 1368 1369 1371 1373 1376 1378 1381 1383 1386 1387 1390 1393 1395 1396 1398 1400 1403 1405 1408 1411 1413 1415 1418 1422 1425 1426 1428 1431 1434 1436 1439 1442 1445 1447 1449 1452 1454 1455 1457 1459 1460 1463 1465 1468 1470 1472 1474 1478 1481 1484 1485 1486 1489 1495 1499 1499 1501 1505 1507 1507 1507 1509 1511 1512 1513 1515 1518 1520 1522 1523 1524 1524 1525 1526 1526 1527 1528 1529
1359 1360 1360 1361 1362 1363 1365 1366 1368 1370 1373 1376 1378 1380 1381 1382 1384 1387 1389 1390 1392 1394 1397 1400 1402 1405 1407 1409 1412 1414 1415 1418 1420 1422 1425 1428 1431 1435 1438 1441 1443 1446 1449 1451 1452 1454 1456 1458 1460 1463 1465 1467 1468 1471 1475 1478 1481 1483 1483 1485 1490 1494 1496 1498 1500 1502 1503 1504 1505 1507 1509 1511 1512 1515 1517 1518 1520 1521 1522 1523 1523 1524 1525 1526 1527
1359 1360 1360 1361 1362 1363 1364 1366 1368 1370 1373 1375 1377 1379 1379 1380 1382 1384 1384 1385 1387 1390 1394 1397 1399 1401 1404 1406 1407 1408 1409 1411 1414 1417 1420 1423 1426 1429 1432 1435 1439 1443 1445 1447 1449 1452 1455 1457 1460 1461 1462 1463 1465 1468 1473 1477 1479 1481 1481 1483 1487 1491 1492 1494 1497 1499 1500 1501 1502 1504 1506 1508 1510 1512 1514 1516 1518 1519 1520 1520 1521 1522 1523 1524 1525
1360 1361 1361 1361 1362 1362 1363 1365 1367 1369 1372 1374 1376 1377 1378 1380 1380 1380 1380 1382 1385 1388 1391 1393 1395 1398 1401 1402 1404 1405 1406 1409 1412 1415 1417 1419 1421 1424 1428 1431 1435 1439 1441 1444 1447 1450 1453 1455 1457 1458 1459 1460 1463 1467 1472 1476 1477 1479 1481 1483 1486 1489 1490 1492 1494 1496 1497 1498 1500 1502 1504 1506 1508 1510 1512 1514 1516 1517 1517 1518 1519 1520 1521 1522 1523
1362 1362 1362 1362 1362 1363 1363 1364 1366 1368 1370 1372 1374 1375 1377 1379 1378 1378 1379 1382 1384 1386 1389 1391 1393 1396 1398 1399 1401 1402 1404 1407 1409 1412 1415 1417 1419 1423 1426 1429 1432 1435 1438 1441 1443 1445 1447 1449 1451 1454 1456 1458 1461 1465 1471 1475 1476 1479 1482 1483 1486 1488 1489 1491 1492 1493 1495 1496 1498 1500 1501 1504 1506 1508 1510 1512 1513 1514 1515 1516 1517 1518 1519 1520 1521
1364 1364 1364 1365 1365 1365 1365 1365 1365 1367 1368 1370 1371 1373 1374 1375 1376 1377 1379 1381 1382 1384 1386 1388 1390 1392 1395 1397 1399 1400 1402 1404 1406 1409 1412 1415 1417 1420 1422 1425 1428 1431 1433 1435 1437 1439 1442 1444 1447 1451 1453 1455 1457 1462 1468 1472 1475 1480 1483 1485 1486 1487 1488 1490 1491 1492 1493 1495 1496 1498 1500 1502 1504 1506 1508 1509 1511 1512 1513 1514 1515 1516 1517 1518 1519
1365 1365 1365 1366 1366 1367 1367 1367 1367 1367 1368 1368 1369 1370 1371 1372 1373 1375 1376 1377 1379 1381 1382 1384 1386 1388 1391 1393 1396 1399 1401 1404 1406 1409 1412 1414 1415 1416 1417 1420 1423 1426 1427 1428 1430 1432 1435 1438 1441 1444 1447 1449 1453 1459 1463 1466 1470 1478 1484 1486 1486 1486 1487 1488 1489 1490 1492 1493 1495 1497 1499 1500 1502 1504 1505 1507 1508 1509 1511 1512 1513 1514 1515 1516 1517
1365 1365 1365 1366 1367 1367 1368 1368 1368 1368 1368 1368 1369 1369 1369 1370 1371 1372 1373 1374 1375 1377 1378 1379 1381 1382 1384 1387 1389 1392 1396 1399 1403 1406 1409 1411 1413 1413 1414 1415 1418 1420 1421 1421 1423 1424 1427 1431 1434 1436 1438 1443 1449 1454 1457 1459 1463 1472 1480 1485 1485 1485 1486 1488 1488 1489 1490 1491 1493 1496 1497 1499 1500 1502 1503 1505 1506 1507 1509 1509 1510 1512 1513 1515 1515
1367 1366 1366 1366 1366 1367 1368 1368 1368 1369 1369 1369 1369 1369 1369 1370 1370 1371 1371 1371 1371 1372 1373 1374 1375 1376 1378 1380 1382 1385 1388 1391 1394 1398 1402 1405 1407 1409 1410 1410 1411 1412 1412 1413 1415 1416 1419 1424 1427 1428 1432 1437 1443 1447 1450 1454 1458 1466 1475 1481 1482 1483 1484 1485 1486 1487 1487 1489 1491 1494 1495 1497 1499 1500 1501 1503 1504 1505 1506 1507 1509 1510 1512 1513 1513
1367 1367 1367 1367 1366 1367 1367 1367 1368 1369 1369 1370 1370 1369 1369 1370 1370 1371 1371 1370 1370 1369 1368 1368 1369 1370 1372 1373 1376 1378 1379 1380 1382 1385 1390 1395 1398 1402 1402 1401 1400 1401 1401 1402 1403 1407 1413 1417 1420 1422 1426 1432 1437 1441 1444 1446 1452 1463 1472 1477 1478 1480 1481 1482 1483 1484 1485 1487 1490 1492 1494 1495 1497 1498 1499 1500 1501 1503 1504 1506 1507 1509 1510 1511 1511
1367 1367 1367 1367 1367 1367 1366 1367 1367 1368 1368 1369 1369 1369 1369 1368 1369 1369 1369 1369 1369 1368 1367 1366 1365 1365 1365 1366 1369 1371 1372 1372 1371 1372 1376 1382 1386 1390 1392 1392 1392 1394 1395 1395 1397 1404 1412 1417 1420 1421 1424 1428 1432 1436 1437 1439 1447 1459 1470 1473 1474 1476 1477 1478 1480 1482 1483 1486 1488 1490 1492 1493 1494 1495 1496 1498 1499 1501 1502 1504 1505 1507 1508 1509 1509
1366 1366 1366 1366 1366 1366 1366 1367 1367 1366 1367 1367 1367 1367 1367 1367 1367 1367 1366 1367 1367 1367 1367 1366 1364 1363 1362 1361 1362 1364 1366 1367 1366 1366 1368 1372 1376 1380 1382 1385 1386 1387 1389 1390 1394 1400 1407 1413 1419 1423 1425 1427 1430 1432 1432 1434 1442 1455 1466 1470 1472 1473 1474 1476 1478 1479 1482 1484 1486 1488 1489 1491 1492 1493 1494 1495 1497 1498 1500 1502 1503 1505 1506 1507 1507
1367 1367 1367 1367 1367 1366 1366 1366 1366 1366 1366 1366 1366 1366 1365 1365 1365 1364 1364 1364 1364 1364 1364 1364 1363 1361 1360 1358 1357 1357 1358 1360 1361 1362 1363 1365 1369 1373 1376 1379 1380 1381 1383 1386 1390 1395 1399 1403 1410 1418 1425 1429 1433 1432 1430 1431 1439 1451 1461 1466 1469 1470 1472 1473 1475 1477 1479 1481 1483 1485 1487 1488 1489 1490 1491 1493 1494 1496 1498 1500 1501 1502 1504 1505 1505